Wind_Speed
5 4 2 2 1 1 1 1 1 1 1 1 1 2 2 1 2 2 3 3 3 3 3 4 4 4 4 5 5 6 6 6 7 7 7 7 7 7 7 7 7 7 7
6 5 3 3 2 1 1 1 2 2 2 2 2 2 2 2 2 3 3 3 3 3 3 3 4 4 5 5 5 6 6 7 7 7 7 7 8 8 8 8 8 8 8
7 6 4 4 3 3 3 2 2 3 3 2 2 2 2 2 2 2 3 3 3 4 4 4 4 4 5 5 5 6 6 7 7 8 8 8 8 8 8 9 9 9 9
9 7 6 5 4 4 4 3 3 3 3 3 2 2 3 3 3 3 3 3 3 3 3 4 4 4 5 5 5 6 6 6 7 7 8 8 8 8 8 9 9 10 10
10 9 8 7 6 5 5 4 4 4 3 3 3 3 3 3 3 3 3 3 3 3 4 4 4 5 5 5 6 6 6 6 7 7 8 8 8 8 9 9 9 10 11
12 10 9 9 7 7 6 5 5 5 4 4 3 3 3 4 4 4 4 4 4 4 4 5 5 5 5 5 6 7 7 7 7 7 8 8 9 9 10 10 10 11 11
13 11 11 10 9 8 7 7 6 6 5 5 5 5 5 5 5 5 4 5 5 5 6 6 6 6 6 6 7 7 7 7 7 7 8 9 9 10 11 12 12 13 13
14 13 12 11 10 9 8 8 8 7 7 7 7 7 6 6 6 6 6 6 6 7 7 7 7 7 7 7 7 7 8 8 8 8 9 10 11 12 12 13 14 14 15
14 14 13 12 11 10 10 9 9 9 9 8 8 8 8 8 8 8 8 8 8 8 9 8 8 8 8 8 8 9 9 10 10 10 11 12 13 14 14 15 15 16 17
15 15 14 14 13 12 11 11 11 11 10 10 10 10 10 10 10 10 10 9 9 9 9 9 10 10 10 11 11 10 11 11 12 13 14 14 15 16 17 18 18 18 19
16 16 16 15 15 14 12 12 12 12 12 12 12 12 12 12 12 12 12 12 12 11 11 12 11 12 12 13 13 13 14 14 15 16 16 17 18 19 20 20 21 21 21
15 16 16 15 15 14 14 14 14 14 14 14 14 14 14 14 14 14 14 14 14 14 14 14 14 14 14 15 16 16 16 17 18 18 19 20 21 21 22 23 23 23 24
15 15 15 15 16 16 15 15 15 14 14 14 14 15 15 15 15 15 15 16 15 16 15 15 15 16 16 17 17 18 18 19 20 21 21 22 23 23 24 25 26 26 27
14 14 15 15 15 16 16 16 15 16 16 15 16 16 16 17 17 17 17 18 18 17 17 17 18 19 18 19 20 20 21 22 23 24 25 25 26 26 27 28 29 29 30
12 13 14 15 16 16 17 17 16 17 17 17 17 18 19 19 19 19 19 19 19 20 20 20 20 21 21 21 22 23 23 24 25 26 27 27 27 28 30 31 32 33 34
13 13 15 16 16 17 18 18 17 18 18 18 19 19 20 20 21 21 21 21 21 21 22 23 23 23 23 24 24 24 25 26 27 28 29 30 31 31 32 34 35 36 36
13 13 15 16 16 17 17 18 19 19 19 19 19 20 21 21 21 22 23 22 22 23 23 24 25 26 26 26 26 27 28 29 29 30 31 33 33 34 35 36 37 37 37
13 14 14 16 17 17 18 18 19 19 20 19 20 21 22 22 22 23 24 24 24 24 25 26 27 27 27 28 29 29 30 31 32 33 34 35 35 36 37 37 37 38 39
13 15 16 16 17 18 18 19 19 19 20 20 21 22 23 24 24 24 25 26 26 26 27 27 27 28 29 31 31 32 33 33 34 34 35 36 37 38 38 38 39 40 41
15 15 16 16 17 18 19 19 20 21 21 22 22 23 24 26 26 26 27 27 28 28 28 28 29 30 31 31 32 33 34 34 35 36 37 37 38 38 38 39 40 40 41
15 16 16 17 17 18 19 20 22 22 23 24 24 25 25 26 26 27 28 28 29 29 29 30 30 31 32 33 33 34 35 36 37 37 37 37 38 39 39 40 41 42 43
16 17 18 18 19 20 20 21 23 24 25 25 26 26 26 26 27 27 27 28 28 29 29 30 31 32 32 33 33 34 35 36 36 36 37 38 39 40 41 42 43 44 45
18 18 19 20 20 20 21 22 24 25 26 26 27 28 27 28 28 27 27 27 28 29 30 30 31 32 32 32 33 33 34 35 36 37 39 39 40 41 43 44 44 45 46
18 18 19 20 21 21 22 22 23 24 24 25 26 27 28 29 30 29 29 29 28 28 29 30 31 32 32 33 33 33 34 35 37 38 39 41 42 43 44 45 45 45 45
19 19 20 20 21 22 22 23 24 25 26 26 27 28 29 29 29 29 29 28 28 29 29 30 30 31 31 32 33 35 35 37 38 39 40 41 42 43 43 44 44 45 45
20 21 21 22 23 24 24 25 25 25 25 26 27 27 27 28 29 29 28 28 29 29 30 30 32 32 33 34 35 36 37 38 39 40 40 41 42 42 43 44 44 43 43
Wind_Direction
216 220 234 241 240 245 228 213 210 189 173 181 189 206 212 213 221 219 212 213 221 230 243 250 246 252 263 270 272 275 274 272 276 278 280 286 291 294 298 299 303 307 309
215 217 229 229 227 227 225 205 211 205 189 182 176 188 202 204 210 214 211 212 223 232 236 247 254 256 262 266 270 274 272 274 279 280 279 283 288 290 292 293 297 299 302
220 218 225 224 225 229 217 199 194 193 192 191 192 196 196 196 196 211 221 226 233 240 247 255 256 259 265 270 273 279 275 272 278 282 279 280 285 290 292 293 293 294 298
219 221 224 226 227 221 209 199 195 198 200 200 200 203 206 216 216 216 219 227 238 247 256 265 272 268 270 277 282 283 282 278 279 284 284 282 283 288 290 291 292 293 296
215 217 223 224 221 214 208 204 206 208 212 212 211 211 210 213 223 226 228 236 247 250 258 270 278 280 278 275 279 281 282 282 285 288 287 283 285 289 289 290 291 294 295
216 218 222 220 219 220 215 211 214 217 221 223 223 224 220 224 228 238 243 247 254 258 261 267 272 278 277 275 279 281 283 282 284 288 289 287 289 292 291 290 291 293 293
217 218 222 223 225 227 226 224 224 226 229 236 239 240 237 237 238 245 249 253 260 262 265 268 270 275 277 278 281 283 285 278 285 289 290 290 292 295 294 291 290 291 292
219 220 222 226 230 233 234 232 231 233 238 241 243 246 246 248 245 247 254 260 266 267 265 265 268 273 278 280 282 283 286 282 286 290 292 290 291 292 294 293 291 291 291
219 222 224 228 233 237 239 239 237 239 243 243 245 246 247 250 251 253 259 262 265 269 268 268 269 273 274 277 280 283 283 282 284 288 291 292 292 291 292 292 291 291 291
219 223 227 232 234 239 242 242 242 244 246 247 249 251 250 250 253 255 258 262 264 268 269 267 271 271 273 275 279 282 282 283 285 287 289 290 293 292 291 291 289 290 289
222 226 230 234 237 241 242 243 246 247 248 249 251 253 252 253 254 255 257 261 264 267 268 267 270 271 273 275 277 279 281 283 284 284 286 289 291 292 291 290 289 289 289
225 228 233 236 239 242 244 247 248 249 249 250 252 252 254 256 257 257 258 261 264 267 268 267 270 270 273 276 277 278 280 282 283 284 285 287 289 290 289 288 288 288 288
228 232 235 238 240 242 246 249 249 250 250 250 252 254 255 258 259 260 259 260 263 266 267 269 268 270 274 277 279 280 280 282 283 284 285 286 286 286 287 287 287 286 286
231 234 237 241 243 245 247 250 250 251 252 252 253 255 256 258 259 260 261 263 264 266 267 268 269 272 274 276 278 279 281 283 284 284 284 285 284 285 285 287 286 286 285
237 240 241 242 245 247 249 250 252 253 254 255 256 257 257 257 259 260 261 262 264 265 266 268 271 273 274 275 278 280 281 283 285 285 284 285 285 286 286 286 286 285 285
243 244 245 247 249 251 251 252 255 257 257 258 259 260 259 259 260 261 261 262 263 265 266 268 270 273 274 276 277 279 280 281 282 282 283 283 285 286 287 287 286 286 285
245 249 251 252 253 252 253 255 258 258 258 260 261 262 261 262 263 263 262 262 264 265 266 268 270 271 273 275 276 277 278 279 280 282 283 285 286 287 287 288 287 287 286
250 255 259 256 254 255 255 258 260 260 259 260 263 264 262 263 265 264 263 263 264 265 267 269 271 272 272 273 275 277 279 279 281 282 284 285 286 287 288 288 288 288 288
258 261 263 259 258 258 258 259 262 262 261 263 264 264 264 265 267 266 265 265 265 266 268 270 272 273 274 275 276 278 280 280 281 283 285 285 286 288 288 288 288 289 290
262 264 266 264 263 263 262 262 263 264 264 266 265 263 266 268 268 268 269 269 268 268 268 270 274 275 277 277 279 280 282 283 283 284 285 286 287 288 288 288 290 291 291
268 265 266 267 265 266 266 266 266 265 266 268 269 268 269 270 269 270 270 271 271 271 271 273 275 277 279 280 280 281 283 284 285 286 287 288 289 289 289 290 290 291 292
271 269 267 267 268 268 268 268 268 267 267 269 271 272 271 271 271 272 272 272 272 272 274 275 277 278 280 281 281 282 285 286 288 289 289 289 290 290 290 292 293 293 294
274 275 273 271 271 273 273 272 271 271 270 271 272 272 272 273 275 275 274 273 273 274 275 277 278 280 282 282 284 287 288 289 290 290 291 291 292 294 294 295 295 295 297
277 277 276 274 273 275 275 276 276 275 275 273 272 271 272 274 278 278 277 276 275 277 278 280 282 283 284 285 286 287 289 290 291 292 293 293 295 296 296 297 297 298 299
278 277 277 277 277 278 278 278 277 277 275 276 276 275 274 277 278 278 279 279 279 279 280 279 282 285 287 288 289 289 290 292 293 293 294 296 297 298 299 300 300 300 300
281 280 280 279 279 279 280 281 279 277 277 278 278 278 278 278 277 277 278 280 280 280 280 281 284 286 288 289 290 290 292 293 295 295 296 298 299 300 301 301 302 303 303
Height
5903 5904 5905 5905 5906 5906 5907 5908 5908 5909 5909 5910 5910 5910 5911 5911 5911 5912 5912 5912 5913 5913 5914 5914 5914 5915 5915 5915 5915 5915 5916 5916 5916 5916 5916 5916 5916 5916 5916 5916 5916 5916 5915
5902 5903 5904 5905 5905 5906 5907 5907 5908 5908 5909 5909 5910 5910 5910 5911 5911 5912 5912 5912 5913 5913 5913 5914 5914 5914 5914 5914 5914 5914 5915 5915 5915 5915 5915 5915 5915 5915 5915 5915 5915 5914 5914
5901 5902 5903 5904 5905 5906 5906 5907 5907 5908 5908 5909 5910 5910 5910 5911 5911 5911 5912 5912 5912 5913 5913 5913 5913 5913 5913 5913 5913 5913 5913 5914 5914 5914 5914 5914 5914 5914 5914 5913 5913 5913 5913
5900 5901 5903 5904 5904 5905 5906 5906 5907 5907 5908 5909 5909 5909 5910 5910 5911 5911 5912 5912 5912 5912 5913 5913 5913 5913 5913 5913 5913 5913 5913 5913 5913 5913 5913 5913 5913 5913 5912 5912 5912 5911 5911
5899 5900 5902 5903 5904 5905 5905 5906 5907 5907 5907 5908 5909 5909 5909 5910 5910 5911 5911 5912 5912 5912 5912 5912 5913 5912 5912 5912 5912 5912 5912 5912 5912 5912 5912 5911 5911 5911 5911 5911 5910 5910 5909
5897 5899 5901 5902 5903 5904 5905 5905 5906 5907 5907 5908 5908 5908 5909 5909 5910 5910 5911 5911 5912 5912 5912 5912 5912 5912 5911 5911 5911 5911 5911 5911 5911 5910 5910 5910 5910 5910 5909 5909 5908 5908 5907
5896 5898 5899 5901 5902 5903 5904 5904 5905 5906 5906 5907 5908 5908 5909 5909 5910 5910 5910 5911 5911 5911 5911 5911 5911 5911 5911 5910 5910 5910 5910 5910 5909 5909 5909 5909 5908 5908 5907 5907 5906 5906 5905
5894 5896 5898 5900 5901 5902 5903 5903 5904 5905 5905 5906 5907 5907 5908 5909 5909 5909 5909 5910 5910 5910 5910 5910 5910 5910 5910 5909 5909 5909 5908 5908 5908 5907 5907 5907 5906 5906 5905 5904 5904 5903 5902
5892 5894 5896 5898 5899 5901 5901 5902 5903 5904 5904 5905 5905 5906 5906 5907 5907 5908 5908 5908 5909 5909 5908 5908 5908 5908 5908 5908 5907 5907 5907 5906 5906 5905 5905 5904 5904 5903 5902 5901 5901 5900 5899
5890 5892 5894 5896 5897 5899 5899 5900 5901 5901 5902 5903 5903 5904 5905 5905 5906 5906 5907 5907 5907 5907 5906 5906 5906 5906 5906 5905 5905 5905 5905 5904 5903 5903 5902 5902 5901 5900 5899 5898 5897 5896 5895
5888 5890 5892 5893 5895 5896 5897 5898 5898 5899 5900 5900 5901 5902 5902 5903 5903 5904 5904 5904 5904 5904 5904 5904 5904 5903 5903 5903 5903 5902 5902 5901 5901 5900 5899 5898 5897 5896 5895 5894 5893 5892 5891
5886 5887 5889 5891 5892 5893 5894 5895 5896 5896 5897 5898 5898 5899 5900 5900 5901 5901 5901 5901 5901 5901 5901 5901 5901 5901 5900 5900 5900 5899 5899 5898 5897 5896 5895 5894 5893 5892 5891 5889 5888 5887 5885
5883 5885 5886 5888 5889 5890 5891 5892 5893 5893 5894 5895 5895 5896 5896 5897 5897 5898 5898 5898 5898 5898 5898 5898 5897 5897 5897 5896 5896 5895 5894 5894 5893 5892 5890 5889 5888 5886 5885 5884 5882 5881 5880
5880 5882 5884 5885 5886 5887 5888 5889 5890 5890 5891 5891 5892 5892 5893 5893 5894 5894 5894 5894 5894 5894 5894 5894 5893 5893 5892 5892 5891 5891 5890 5889 5888 5886 5885 5884 5882 5881 5879 5877 5876 5874 5873
5878 5879 5881 5882 5883 5884 5885 5885 5886 5887 5887 5888 5888 5889 5889 5889 5890 5890 5890 5890 5890 5890 5890 5890 5889 5889 5888 5887 5886 5885 5884 5883 5882 5881 5879 5877 5876 5874 5873 5871 5869 5867 5865
5875 5876 5877 5878 5879 5880 5881 5882 5882 5883 5884 5884 5884 5885 5885 5885 5885 5885 5885 5885 5886 5886 5885 5885 5884 5883 5883 5882 5881 5880 5879 5877 5876 5874 5872 5871 5869 5867 5865 5863 5861 5859 5857
5873 5873 5874 5874 5875 5876 5877 5877 5878 5878 5879 5880 5880 5880 5880 5880 5880 5880 5880 5880 5880 5880 5880 5879 5878 5878 5877 5876 5875 5874 5873 5871 5869 5867 5865 5863 5862 5859 5857 5855 5852 5850 5847
5870 5870 5870 5871 5871 5872 5872 5873 5873 5874 5874 5874 5875 5875 5875 5875 5875 5875 5874 5874 5874 5874 5874 5873 5872 5872 5871 5869 5868 5867 5865 5864 5862 5860 5858 5856 5854 5851 5849 5846 5843 5841 5838
5866 5866 5866 5866 5867 5867 5867 5868 5868 5869 5869 5869 5869 5869 5869 5869 5869 5869 5868 5868 5868 5868 5868 5867 5866 5865 5864 5862 5861 5860 5858 5856 5854 5852 5850 5847 5845 5842 5839 5837 5834 5831 5828
5862 5863 5862 5862 5862 5863 5863 5863 5864 5864 5864 5864 5863 5863 5863 5863 5863 5862 5862 5862 5861 5861 5860 5860 5859 5858 5856 5855 5853 5852 5850 5848 5846 5843 5841 5838 5836 5833 5830 5827 5824 5821 5818
5858 5858 5858 5858 5858 5858 5858 5858 5858 5858 5858 5858 5858 5857 5857 5856 5856 5856 5855 5854 5854 5854 5853 5852 5851 5850 5849 5847 5845 5843 5841 5839 5836 5834 5832 5829 5826 5823 5820 5817 5814 5810 5807
5854 5854 5854 5854 5853 5853 5853 5853 5853 5852 5852 5852 5851 5850 5850 5850 5849 5849 5848 5847 5847 5846 5845 5844 5844 5842 5841 5839 5837 5835 5833 5831 5828 5826 5823 5820 5817 5814 5810 5807 5803 5799 5795
5850 5849 5849 5849 5848 5848 5848 5847 5847 5846 5845 5845 5844 5844 5843 5843 5842 5841 5840 5840 5839 5839 5838 5837 5836 5834 5833 5831 5829 5826 5824 5822 5819 5816 5813 5810 5806 5803 5799 5795 5791 5787 5783
5846 5845 5844 5844 5843 5843 5842 5841 5840 5839 5839 5838 5838 5837 5837 5836 5835 5834 5833 5832 5832 5831 5830 5828 5827 5826 5824 5822 5820 5818 5815 5813 5810 5807 5803 5800 5796 5792 5788 5784 5780 5776 5771
5841 5840 5839 5838 5838 5837 5836 5835 5834 5833 5832 5832 5831 5831 5830 5829 5828 5827 5826 5825 5824 5823 5822 5820 5819 5817 5815 5813 5811 5809 5807 5803 5800 5797 5793 5790 5785 5781 5777 5773 5769 5764 5760
5835 5834 5833 5833 5832 5831 5830 5828 5827 5826 5825 5825 5824 5823 5823 5822 5821 5819 5819 5817 5816 5815 5814 5812 5811 5809 5807 5805 5802 5800 5797 5794 5791 5787 5783 5780 5775 5771 5767 5762 5758 5753 5749